STARLINK-35445, 65880

Orbit data source: Space-Track

STARLINK-35445, 65880 is a payload satellite owned by SpaceX/Seattle (US) in LEO that was launched on Fri, 03 Oct 2025 UTC via an FALCON 9 launch vehicle from the Air Force Western Test Range (AFWTR). Payload-class satellites include a variety of spacecraft equipped with specific instruments for various scientific and technological missions. These include communications satellites like Starlink; space stations such as the ISS; scientific satellites like the Hubble; Earth observation satellites from companies like Planet Labs, Umbra, and HawkEye 360; GPS; miniature CubeSats for education and research; and military/defense satellites.

Loading next visibility...
Identifier
65880, 2025-223AC
Orbit
LEO
Country
Flag of USUS
Related business
Manufacturer
SpaceX/Seattle
Mission
Operational Commercial Communications
Bus & Motor
STARLINK V2MO, Unknown motor
Mass
575 kg wet, ~530 kg dry
Launch date (UTC)
2025-10-03 (9 months ago)
Launch vehicle
FALCON 9
Launch site
Air Force Western Test Range (AFWTR)
Object type
Payload
Rocket body
Debris
Shape & HBR
Box + 2 Pan, 17.7 m
Radar Cross Section
36.964 m², Large (>1 m²)

Expand to show TLE details & history
Last TLE update: 11 hours ago

TLE from 11 hours ago
0 STARLINK-35445
1 65880U 25223AC  26171.39352366  .00008384  00000-0  25898-3 0  9993
2 65880  53.1581 176.1595 0001222  97.0529 263.0613 15.34400493 39944
Epoch: 2026-06-20T09:26Z
TLE epoch observation values (Epoch: 2026-06-20T09:26:40.444Z)
Latitude
0.00003°
Longitude
125.88222°
Altitude
463.704 km
Speed
7.636 km/s
True Right ascension
11h 44m 38s
True Declination
0° 00' 00"
Sunlit
Object was in daylight at epoch
Visualization orbit readout
Latitude
Unknown
Longitude
Unknown
Altitude
Unknown
Speed
Unknown
Apparent Right ascension
Unknown
Apparent Declination
Unknown
Sunlit
N/A
Visualization observer readout
Local Sidereal Time
07:12:50
Azimuth
Unknown
Elevation
Unknown
Doppler factor
Unknown
Orbital elements
Apogee altitude
463.795 km
Perigee altitude
462.123 km
Semi-major axis
6,841.096 km
Eccentricity
0.00012
Inclination
53.1581°
RAAN
176.1595°
Arg. of periapsis
97.0529°
True anomaly
263.0474°
Mean anomaly
263.0613°
Eccentric anomaly
263.05435°
Mean motion
3.83579 °/min
Orbital period
93.85 mins
BSTAR
0.00025898
Loading maneuver chart data...
Computing Atmospheric mass density...
Loading historical data...
Loading historical data...
Loading historical data...
Loading historical data...
Loading historical data...
Loading historical data...
Loading historical data...

Documentation

Showing up to 5 results
|